This is the latest recevied weather packets stored in our database for station/object DG4MND-4. If no packets are shown the sender has not sent any weather packets the latest 1 day(s).
| Time | Temp. | Humidity | Pressure | Rain* | Wind** | Luminosity | Snow |
|---|---|---|---|---|---|---|---|
| 1777997443 | 16.11° C | 75% | 1006.8 hPa | 0 mm | 0.45 m/s, 315° | - | - |
| 1777996843 | 16.67° C | 73% | 1006.9 hPa | 0 mm | 0 m/s | - | - |
| 1777996239 | 16.67° C | 68% | 1006.9 hPa | 0 mm | 0.45 m/s, 342° | - | - |
| 1777995636 | 17.22° C | 65% | 1007 hPa | 0 mm | 0.45 m/s, 299° | - | - |
| 1777995033 | 17.22° C | 64% | 1007.1 hPa | 0 mm | 0.45 m/s, 336° | - | - |
| 1777994426 | 16.67° C | 64% | 1007 hPa | 0 mm | 0.45 m/s, 324° | - | - |
| 1777993823 | 17.22° C | 63% | 1006.8 hPa | 0 mm | 0.45 m/s, 335° | - | - |
| 1777993219 | 17.22° C | 64% | 1006.7 hPa | 0 mm | 0.89 m/s, 315° | - | - |
| 1777992619 | 17.22° C | 64% | 1006.8 hPa | 0 mm | 0.89 m/s, 333° | - | - |
| 1777992076 | 17.22° C | 67% | 1006.8 hPa | 0 mm | 0.45 m/s, 354° | - | - |
| 1777991472 | 17.22° C | 63% | 1006.9 hPa | 0 mm | 0.89 m/s, 331° | - | - |
| 1777990869 | 17.22° C | 62% | 1006.8 hPa | 0 mm | 0.89 m/s, 330° | - | - |
| 1777990262 | 17.22° C | 66% | 1006.8 hPa | 0 mm | 0.89 m/s, 320° | - | - |
| 1777989659 | 17.22° C | 67% | 1006.8 hPa | 0 mm | 0.45 m/s, 337° | - | - |
| 1777989055 | 17.22° C | 66% | 1006.8 hPa | 0 mm | 0.89 m/s, 338° | - | - |
| 1777988452 | 17.22° C | 70% | 1006.8 hPa | 0 mm | 0.45 m/s, 343° | - | - |
| 1777987849 | 17.78° C | 71% | 1006.8 hPa | 0 mm | 0.89 m/s, 330° | - | - |
| 1777987245 | 16.67° C | 74% | 1007 hPa | 0 mm | 0.89 m/s, 321° | - | - |
| 1777986641 | 16.11° C | 77% | 1007.1 hPa | 0 mm | 0.89 m/s, 329° | - | - |
| 1777986038 | 16.11° C | 81% | 1007.1 hPa | 0 mm | 1.34 m/s, 324° | - | - |
| 1777985435 | 15.56° C | 83% | 1007.3 hPa | 0.25 mm | 0.89 m/s, 331° | - | - |
| 1777984831 | 15.56° C | 83% | 1007.3 hPa | 0.25 mm | 0.89 m/s, 352° | - | - |
| 1777984228 | 15.56° C | 85% | 1007.4 hPa | 0.25 mm | 0.89 m/s, 343° | - | - |
| 1777983625 | 15.56° C | 89% | 1007.5 hPa | 0.25 mm | 0.45 m/s, 321° | - | - |
| 1777983020 | 15° C | 88% | 1007.8 hPa | 0.25 mm | 0.45 m/s, 0° | - | - |
* Rain latest hour (hover to see other rain measurements)
** Current wind speed in m/s (hover to see current wind gust speed)